Theta_e
327 324 325 322 309 307 300 301 306 304 306 310 310 308 307 309 305 303 326 334 333 343 349 352 352 354 354 353 353 353 352 352 351 350 349 348 348 346 344 342 340 339 338 337 334 332 335 337 340
322 321 322 316 304 299 300 304 303 306 308 310 310 310 308 306 315 319 324 333 334 343 349 349 348 353 353 352 352 352 352 351 351 349 349 348 346 345 344 342 340 338 337 336 333 330 329 333 336
321 318 315 309 304 299 299 304 305 307 309 309 308 312 310 309 316 319 326 334 336 342 348 348 348 352 353 352 352 351 351 350 349 349 348 348 347 345 343 341 339 337 336 334 331 329 328 332 334
319 318 313 304 300 302 303 304 306 306 309 310 310 307 313 318 321 326 329 336 336 340 346 346 349 351 350 351 351 351 351 349 348 347 346 346 344 343 341 339 337 334 334 331 329 327 328 330 332
318 314 305 302 301 303 305 306 307 306 307 308 309 306 309 316 326 330 334 336 337 340 345 350 347 349 349 349 350 350 349 347 347 346 345 344 341 339 339 338 336 333 332 330 327 325 325 327 331
311 310 301 299 301 303 306 307 307 306 307 307 306 307 308 316 320 327 332 335 338 340 344 347 342 343 347 347 347 346 347 346 346 345 345 342 339 339 338 337 334 332 331 329 326 323 322 324 325
307 304 300 301 301 302 304 307 306 305 305 306 309 305 309 310 317 326 328 335 338 341 342 344 345 345 338 342 341 341 345 345 345 344 344 341 339 338 336 334 332 331 330 328 326 322 318 320 320
310 306 299 300 299 300 305 306 307 306 305 309 309 305 306 308 313 324 326 330 334 337 340 339 342 344 347 348 337 338 341 342 341 341 338 334 334 333 332 331 332 330 329 327 325 321 312 313 314
309 301 298 299 299 302 306 304 307 308 306 307 307 306 306 308 313 317 320 318 320 319 320 325 334 338 341 345 340 336 336 336 336 335 331 329 334 333 331 329 331 329 329 327 325 320 313 307 309
306 301 300 302 303 303 305 305 305 304 305 304 305 307 307 308 309 310 311 311 311 312 314 316 319 327 336 340 343 345 344 345 343 343 339 341 338 333 330 326 327 328 328 327 324 320 315 318 312
305 300 301 301 304 306 304 304 306 303 302 304 303 304 305 306 307 307 308 308 309 311 314 315 316 318 326 337 341 344 343 344 344 342 342 341 337 333 331 327 326 325 322 326 325 324 322 318 315
301 303 303 304 304 304 303 305 303 304 303 303 303 303 303 303 304 304 305 307 309 311 313 316 317 317 320 335 338 340 341 342 341 341 340 340 338 334 331 328 326 325 325 322 321 321 322 320 318
302 303 304 305 305 304 304 303 303 302 303 302 302 302 302 302 302 305 306 308 309 311 312 314 318 320 318 334 338 332 327 324 323 323 330 335 337 333 331 328 326 324 322 320 319 319 321 321 319
304 303 303 304 304 303 301 303 301 302 302 301 300 300 300 300 301 303 304 306 308 309 310 314 320 318 322 321 318 316 316 316 315 314 318 323 328 328 326 323 321 319 318 317 316 316 318 319 319
303 300 303 304 304 302 302 299 298 302 302 300 300 300 299 299 300 301 303 306 306 306 308 312 313 316 313 310 310 310 310 309 308 309 311 314 317 317 316 314 312 312 312 312 312 314 316 317 315
300 301 298 303 302 301 301 298 301 301 300 300 300 300 299 298 299 301 303 306 303 304 306 308 308 307 305 305 305 305 305 305 304 305 307 310 310 311 310 309 308 310 311 312 311 309 314 313 311
300 296 298 300 302 300 299 299 300 300 300 300 300 299 299 299 299 300 302 303 300 302 304 305 305 303 301 300 298 299 299 298 299 301 304 304 304 308 307 305 304 304 303 302 304 305 305 306 308
297 296 297 297 300 299 298 298 298 299 299 299 299 298 298 297 297 298 300 301 299 300 303 303 302 300 299 297 296 295 295 297 297 298 299 300 302 300 299 300 301 303 301 302 303 305 306 304 303
299 298 297 299 300 297 298 299 301 298 297 298 298 298 298 297 296 298 300 301 298 299 298 300 301 300 299 297 296 296 295 296 296 296 297 297 297 298 298 299 298 298 297 297 299 304 302 301 302
298 296 296 299 297 296 297 297 301 300 297 298 298 297 297 296 296 296 299 299 297 297 297 297 298 299 298 298 297 296 295 295 294 294 294 294 295 294 295 295 295 295 294 294 294 295 296 296 297
296 295 296 295 296 296 296 294 297 299 297 296 296 298 297 296 295 295 297 299 298 297 297 298 298 299 299 297 296 295 295 294 292 292 292 293 293 293 293 293 293 293 293 291 292 292 292 291 293
293 299 296 295 293 290 296 289 299 298 292 292 293 294 295 295 295 295 295 296 296 295 296 297 297 297 297 298 297 297 293 290 291 291 291 291 292 291 292 292 292 291 291 291 290 291 290 290 288
295 298 295 295 293 293 294 289 295 295 291 292 293 294 295 294 294 293 294 293 293 295 295 295 295 295 295 296 295 293 291 292 291 291 291 290 291 291 290 290 290 290 290 290 290 289 289 289 288
297 294 293 293 293 286 292 291 293 292 293 295 294 294 294 293 293 292 291 291 291 292 293 293 292 292 293 293 293 292 291 291 290 290 290 290 289 289 289 289 289 288 288 288 289 289 288 287 287
296 292 287 284 283 284 291 291 294 298 296 297 293 293 294 293 292 290 288 289 289 290 291 291 290 290 291 292 292 292 291 291 290 290 289 288 288 287 287 288 287 287 286 287 287 287 287 286 286
292 294 288 282 284 287 286 285 291 295 297 295 296 295 294 292 291 289 289 289 289 289 289 289 290 289 290 290 290 291 290 290 290 289 289 288 287 287 287 287 287 286 286 285 286 286 286 285 286
292 290 296 286 282 285 288 291 295 291 291 292 294 294 293 291 290 289 289 289 288 289 289 289 289 290 289 289 290 289 290 289 289 289 289 288 287 286 286 286 285 285 285 285 284 285 285 285 285
294 296 286 288 282 281 288 289 290 288 289 291 292 293 293 292 290 290 289 289 288 289 289 290 290 289 289 289 289 289 289 289 289 288 287 286 286 285 284 284 284 284 283 283 283 283 284 282 283
289 289 291 291 290 286 284 288 297 296 294 291 292 293 294 292 290 290 289 289 288 289 289 289 289 289 289 289 289 289 288 288 288 287 286 286 285 284 283 282 282 282 281 281 281 281 281 280 280
295 292 292 287 284 287 287 289 293 297 298 296 294 294 295 294 292 290 289 289 288 288 288 288 289 288 289 289 289 288 288 287 287 286 285 285 283 282 281 281 280 280 279 279 279 278 278 278 278
Wind_Speed
9 5 4 5 6 3 5 5 2 3 3 6 4 6 9 12 11 6 3 6 2 11 15 13 11 13 13 11 8 7 8 9 10 11 11 12 13 13 14 15 13 12 13 13 13 12 12 11 10
6 5 4 3 5 5 6 5 4 5 6 2 1 2 3 13 11 9 5 4 1 10 12 12 10 11 12 12 10 7 9 9 10 10 11 12 12 14 13 14 13 12 13 13 13 12 10 9 10
6 4 4 3 4 5 5 3 6 4 3 1 2 3 4 8 13 6 5 4 4 9 9 11 9 7 10 12 10 7 8 10 9 12 14 15 15 14 13 13 12 12 12 13 13 12 11 11 10
4 4 4 7 3 4 5 5 3 5 2 1 2 9 8 11 6 7 4 4 7 7 8 13 11 10 7 11 10 8 7 8 9 8 12 12 13 12 11 12 12 12 12 12 12 13 14 12 10
4 3 4 2 4 5 4 4 1 3 4 4 2 6 8 8 9 8 7 4 6 7 7 10 6 10 11 11 11 9 8 8 9 8 10 13 13 11 9 9 13 12 12 13 14 14 13 13 12
4 3 6 6 5 5 4 3 2 1 3 6 3 5 7 9 9 8 5 6 4 6 4 8 6 2 2 8 9 10 8 8 8 9 11 13 13 13 12 13 12 12 12 12 12 13 13 12 13
4 4 4 3 5 6 4 3 5 2 4 6 2 3 10 13 10 6 5 5 6 6 5 4 8 8 4 4 5 8 9 9 10 10 11 12 11 12 13 13 12 11 11 11 12 12 12 13 14
4 4 2 3 6 5 5 5 1 3 7 1 3 3 6 10 9 2 6 6 8 7 6 5 6 3 7 9 7 7 9 9 8 9 12 11 11 12 13 12 10 11 10 11 11 12 11 11 11
2 5 4 3 5 4 6 7 2 1 3 4 4 7 5 7 6 1 3 6 4 5 5 4 3 3 5 8 6 6 6 6 8 10 12 11 7 8 6 10 10 11 10 10 10 10 8 3 7
4 4 1 2 1 4 6 4 2 5 7 6 8 8 7 5 5 3 3 3 4 5 5 5 4 2 4 4 5 7 6 6 7 8 11 7 8 6 7 6 9 8 11 10 8 6 2 6 5
1 4 3 4 2 1 4 4 2 5 7 6 4 5 7 6 6 5 5 5 6 6 5 6 5 4 3 3 4 3 2 3 3 6 8 6 7 6 4 4 3 3 1 4 2 2 6 7 6
6 2 2 3 3 3 5 0 5 5 5 4 4 3 4 5 5 6 6 7 8 7 7 8 7 5 5 3 2 1 0 0 3 3 1 5 3 5 4 3 4 3 3 4 3 3 4 5 5
7 3 3 4 6 5 2 8 8 6 4 4 4 3 3 4 4 4 5 6 7 8 9 10 8 5 4 4 2 7 8 7 8 8 9 6 2 4 4 4 4 3 3 3 3 2 2 3 4
2 4 6 6 10 6 8 9 5 6 6 5 4 3 2 2 4 4 6 6 7 8 9 10 9 1 4 9 10 7 7 8 8 7 8 9 6 6 6 5 5 5 5 5 4 4 5 4 4
2 7 9 11 12 9 9 8 13 10 8 7 6 4 1 1 3 5 6 6 8 7 8 9 8 10 12 10 10 8 8 8 8 7 10 11 10 9 8 6 6 5 4 5 4 4 3 3 4
6 5 8 7 8 5 11 8 10 8 11 9 6 4 3 1 2 4 5 6 7 7 8 8 8 12 12 10 8 9 9 8 8 7 7 11 12 11 8 6 5 5 4 3 3 3 3 4 5
10 11 10 6 10 6 13 3 10 8 11 10 7 4 3 2 1 3 4 6 6 5 6 8 9 12 12 11 10 11 13 9 9 9 9 12 12 11 9 7 7 6 6 6 4 3 2 3 6
11 14 11 11 8 10 12 15 8 10 10 10 8 6 5 4 1 2 3 5 5 5 6 8 8 10 10 9 10 9 10 9 8 8 10 12 11 11 8 8 7 6 6 7 5 4 4 5 7
9 11 13 9 3 5 14 16 12 12 11 11 10 8 7 5 3 3 3 6 6 6 7 7 8 8 6 7 8 8 9 9 10 10 14 13 11 11 10 8 8 9 10 10 10 7 8 7 10
16 16 16 13 4 5 13 18 15 16 15 13 11 10 8 7 7 5 5 6 5 6 7 6 6 6 6 6 6 7 9 9 10 10 12 13 12 13 11 10 10 10 8 10 11 11 6 7 10
16 18 15 15 1 11 13 20 22 12 10 8 9 9 9 10 9 8 7 7 7 7 7 6 7 9 9 11 10 10 10 9 9 10 9 11 12 12 13 12 10 10 9 8 10 10 12 7 8
18 14 14 13 7 11 4 12 8 14 14 15 14 13 12 11 9 9 10 9 8 6 7 8 9 10 9 10 9 11 10 11 10 10 9 9 11 13 12 12 10 10 8 9 9 9 8 9 7
7 4 7 9 14 16 17 10 8 6 14 18 18 16 15 14 12 12 10 9 9 8 8 8 10 10 10 11 12 10 12 10 9 9 11 10 9 11 12 11 10 10 8 8 9 8 8 6 5
12 8 4 3 8 13 17 16 10 9 10 14 17 18 17 16 15 13 11 10 9 8 9 9 11 11 11 11 12 13 13 12 9 9 8 7 7 7 10 10 9 9 8 8 7 8 8 7 6
13 10 4 5 6 9 2 15 14 7 7 10 21 21 20 18 16 15 14 13 13 12 10 10 11 12 11 12 13 12 12 12 13 10 7 8 7 7 8 8 8 7 8 7 6 6 6 6 6
19 16 8 7 8 4 2 11 7 1 5 2 15 19 19 19 16 16 15 13 12 12 12 12 12 13 12 12 12 11 11 7 7 9 8 7 7 7 7 7 7 8 8 8 7 5 5 6 5
10 19 7 2 2 3 9 9 4 6 7 7 16 20 20 20 19 19 17 14 14 13 13 13 13 13 13 12 11 11 10 9 9 9 9 7 7 6 7 7 7 7 7 8 8 5 5 6 5
9 11 7 7 6 8 8 12 10 10 15 14 19 20 20 19 19 18 17 16 14 13 12 12 12 13 13 12 11 9 9 8 9 8 9 9 7 7 6 6 6 6 6 7 7 5 6 6 6
9 10 9 5 8 4 4 8 7 13 16 21 19 19 20 21 20 18 16 15 14 14 13 13 13 13 12 11 10 10 9 8 8 7 7 7 7 6 5 4 4 5 6 6 6 7 7 8 8
14 13 17 7 6 7 5 12 3 3 11 17 18 18 19 20 19 19 17 16 15 15 15 14 13 12 11 11 11 10 10 8 7 8 8 6 6 5 3 4 4 5 5 6 7 8 8 9 9
Wind_Direction
270 308 293 247 237 237 120 94 24 80 114 43 36 2 46 38 16 42 85 87 82 154 138 158 153 153 144 143 139 141 130 131 130 129 124 122 112 99 89 82 70 62 57 54 53 53 51 48 50
320 307 233 283 255 182 108 118 113 53 58 48 76 207 49 74 43 93 109 69 118 154 150 160 152 146 147 142 143 166 150 140 131 134 126 112 105 94 86 77 65 56 53 51 51 50 53 52 52
290 286 271 278 293 73 115 136 99 87 74 10 139 2 19 21 51 50 38 55 149 153 170 127 142 147 154 144 155 173 155 137 133 123 117 116 107 97 91 83 69 58 52 48 46 46 47 50 50
293 201 217 256 115 73 85 107 81 150 120 57 357 98 98 37 35 20 73 59 132 153 166 138 154 157 164 152 162 178 159 137 139 133 113 100 89 87 94 86 73 64 59 52 50 46 44 43 44
237 248 248 232 117 117 105 79 81 155 113 109 289 117 80 47 59 48 90 75 126 150 169 145 164 174 181 176 180 182 159 148 145 135 114 105 97 89 95 89 75 63 57 48 47 47 45 44 41
240 285 239 210 160 137 131 103 197 196 126 117 167 122 77 66 40 40 43 76 91 118 149 147 173 297 234 197 192 181 164 154 149 138 122 115 108 101 100 90 74 66 63 52 49 47 48 50 46
302 273 321 315 159 176 147 153 212 139 161 88 2 175 125 56 17 26 51 72 81 102 149 177 182 197 231 273 209 184 170 166 166 162 134 121 112 105 100 94 89 82 76 63 57 48 46 45 45
295 265 233 218 191 189 137 165 118 301 97 97 0 152 145 21 353 12 67 70 65 49 80 36 21 327 232 199 191 199 177 178 172 145 139 132 119 119 119 112 100 93 89 76 67 53 53 52 49
299 247 221 189 211 169 156 188 150 25 218 79 45 45 11 347 343 39 152 101 91 77 46 29 53 344 296 294 146 183 170 164 138 133 139 143 147 142 151 108 122 112 107 94 80 66 56 58 82
271 269 344 25 137 184 158 238 158 222 185 148 126 86 30 22 21 37 30 21 22 16 12 9 350 325 319 295 282 211 181 183 188 172 170 175 145 125 116 109 111 104 111 98 93 93 119 22 25
144 283 112 165 130 208 176 215 203 252 238 45 1 16 30 32 43 35 27 24 4 350 2 354 331 300 250 251 260 298 206 191 198 193 184 179 138 144 133 124 113 107 142 112 86 53 51 42 29
246 205 235 137 156 194 204 240 219 265 63 79 74 54 38 40 36 25 11 6 360 355 356 349 335 295 245 234 240 326 193 39 34 46 51 158 148 153 144 118 106 95 57 85 74 67 76 75 54
241 193 204 193 176 225 270 239 263 193 148 130 111 97 61 39 18 29 10 12 359 360 357 348 325 286 227 179 111 57 57 57 54 36 32 24 85 134 134 89 94 96 86 91 95 95 112 110 107
46 249 245 223 222 221 219 228 198 175 161 160 172 136 95 36 9 1 14 8 6 6 1 349 337 292 125 67 76 71 65 58 55 44 33 38 43 40 69 70 56 40 43 42 31 8 3 18 346
281 275 250 234 223 224 214 223 224 139 181 184 187 180 168 27 9 18 9 7 16 14 2 14 35 61 69 68 72 74 67 65 60 51 40 45 50 57 67 60 65 41 41 44 19 21 352 354 339
243 242 253 124 173 158 203 257 162 173 189 200 200 199 206 127 15 19 16 26 25 21 28 43 62 73 73 72 74 76 74 70 61 52 48 49 56 56 58 66 45 40 39 55 59 19 353 356 341
213 261 214 195 198 151 204 240 155 184 201 210 213 218 226 202 123 54 32 43 33 37 55 70 76 84 84 78 76 73 70 63 57 54 54 52 42 53 68 59 51 47 44 38 16 36 17 344 343
254 225 256 249 168 219 211 250 167 190 209 215 210 211 214 213 185 38 50 69 59 64 80 87 87 86 89 88 85 79 75 75 70 67 64 56 62 69 59 53 48 38 42 33 7 17 16 17 342
290 275 262 251 113 263 243 253 227 191 212 216 216 212 205 196 156 134 105 97 85 85 90 91 99 98 96 90 91 86 88 86 76 63 61 59 61 57 52 54 56 52 44 34 21 23 27 23 358
239 253 256 263 157 246 267 263 255 190 214 221 218 209 197 176 169 150 134 119 102 101 99 96 102 106 104 98 97 97 95 83 81 73 65 62 59 57 58 55 51 47 52 39 31 26 24 31 26
232 242 251 256 112 237 274 266 249 204 214 223 230 210 190 183 167 152 144 130 124 113 114 118 116 108 105 108 109 107 110 104 89 75 66 55 59 60 60 59 54 48 46 44 35 26 24 26 25
243 225 249 258 255 264 165 284 272 190 205 208 207 198 188 170 158 146 148 139 123 109 105 108 107 108 118 129 125 112 101 99 92 86 78 67 59 61 62 61 60 61 53 43 39 35 29 15 27
244 121 210 243 258 270 251 268 280 160 221 207 205 197 182 174 165 154 145 128 120 125 114 110 110 108 107 104 107 103 103 101 101 96 93 84 68 60 58 58 58 52 47 44 41 33 32 24 23
133 115 106 213 255 256 239 223 262 188 228 199 191 192 178 170 163 151 139 138 125 124 121 120 114 105 105 106 107 112 116 118 115 109 99 90 80 65 61 59 57 55 51 38 33 27 26 19 7
192 172 216 227 210 252 358 213 255 194 179 197 185 185 177 172 167 159 159 156 148 144 135 130 124 117 114 110 111 110 107 109 108 104 99 98 88 72 55 51 51 49 43 42 30 32 17 15 360
199 195 193 226 218 231 95 229 233 339 130 161 178 178 172 173 174 173 168 163 158 152 149 143 136 127 122 117 111 109 107 102 101 105 106 99 89 79 62 54 48 42 35 26 20 23 1 3 348
188 221 245 60 191 270 202 242 225 169 181 185 172 175 178 180 178 178 173 172 166 165 159 154 145 139 135 130 124 121 118 118 117 110 105 97 88 84 67 50 43 33 27 20 6 6 353 346 333
209 164 180 215 221 230 232 244 234 208 199 185 179 183 181 181 182 181 179 178 172 170 163 161 157 151 143 136 131 125 121 119 115 109 100 96 94 79 68 50 39 26 19 5 354 352 342 334 331
173 198 217 232 229 243 262 243 169 200 191 188 188 187 183 183 184 182 180 178 174 174 171 168 165 158 153 144 137 135 133 129 115 111 100 96 93 83 78 60 41 20 11 3 347 340 330 330 322
224 213 201 205 191 239 295 260 113 137 176 180 187 187 187 188 185 184 181 179 180 181 177 174 169 166 164 151 147 144 139 143 138 126 121 123 112 105 92 66 39 17 4 351 340 331 326 322 319